OpenBCM V1.13 (Linux)

Packet Radio Mailbox

DB0FHN

[JN59NK Nuernberg]

 Login: GUEST





  
F1EBE  > KEPLER   23.02.03 11:24l 105 Lines 5483 Bytes #999 (0) @ EU
BID : 22625_F8KOH
Read: DB0FHN GUEST
Subj: 2L Satell Amat 054.day
Path: DB0FHN<DB0RGB<OK0PPL<RZ6HXA<LX0PAC<F6KIF<F6KBK<F6KDS<F5KCK<F8KAE<
      F8KOH
Sent: 030223/0829Z @:F8KOH.FNOR.FRA.EU #:22625 [Vernon] FBB7.00i $:22625_F8KOH
From: F1EBE@F8KOH.FNOR.FRA.EU
To  : KEPLER@EU


AO-7                    
1 07530U 74089B   03051.68685736 -.00000029  00000-0  10000-3 0  1742
2 07530 101.7612  99.4538 0012274  73.9399 286.3023 12.53564472293455
AO-10                   
1 14129U 83058B   03051.35064092 -.00000260  00000-0  10000-3 0  9183
2 14129  25.9612 163.9843 6025988 329.3281   6.3071  2.05868966120105
UO-11                   
1 14781U 84021B   03053.53785361  .00001463  00000-0  20997-3 0   776
2 14781  98.1190  27.4924 0008751 192.2939 167.8055 14.78012830 16828
UO-14                   
1 20437U 90005B   03053.55350636  .00000163  00000-0  76995-4 0  1705
2 20437  98.2730  96.9774 0010266 185.9969 174.1101 14.31240040683068
AO-16                   
1 20439U 90005D   03051.68049958  .00000213  00000-0  95920-4 0  8556
2 20439  98.3166 106.8890 0010428 198.7637 161.3167 14.31473758682836
DO-17                   
1 20440U 90005E   03051.66900634  .00000227  00000-0  10049-3 0  7375
2 20440  98.3373 110.7766 0010408 197.8408 162.2407 14.31751744682907
WO-18                   
1 20441U 90005F   03052.56980371  .00000189  00000-0  86790-4 0   177
2 20441  98.3330 110.8500 0011183 195.8955 164.1879 14.31555572683012
LO-19                   
1 20442U 90005G   03052.19845169  .00000196  00000-0  89217-4 0  9682
2 20442  98.3446 113.5221 0011458 196.3524 163.7287 14.31718661683012
FO-20                   
1 20480U 90013C   03052.89791492 -.00000050  00000-0 -37160-4 0  4641
2 20480  99.0473  15.0146 0540792 356.3417   3.3801 12.83329843610949
RS-12/13                
1 21089U 91007A   03052.88945692  .00000064  00000-0  52127-4 0  4927
2 21089  82.9230 178.9152 0027715 278.3382  81.4625 13.74404716604243
UO-22                   
1 21575U 91050B   03052.56694080  .00000385  00000-0  13748-3 0  7319
2 21575  98.1414  44.5369 0008236 119.4188 240.7823 14.39158335608711
KO-23                   
1 22077U 92052B   03052.83286661 -.00000037  00000-0  10000-3 0  1566
2 22077  66.0868 118.8952 0015606 272.9193  87.0040 12.86408569494723
AO-27                   
1 22825U 93061C   03053.53372837  .00000164  00000-0  81198-4 0  4927
2 22825  98.2747  83.0283 0007437 245.9404 114.1001 14.28945284490447
IO-26                   
1 22826U 93061D   03053.07330853  .00000190  00000-0  90924-4 0  3148
2 22826  98.2754  83.7098 0008052 249.2793 110.7520 14.29168361490429
KO-25                   
1 22828U 93061F   03053.12279100  .00000150  00000-0  74831-4 0  4318
2 22828  98.2711  84.0193 0009118 225.1611 134.8828 14.29509955458633
POSAT                   
1 22829U 93061G   03052.64146383  .00000261  00000-0  11751-3 0  4562
2 22829  98.2718  84.1692 0008952 227.2188 132.8240 14.29770957490491
RS-15                   
1 23439U 94085A   03049.29359592 -.00000042  00000-0  24083-5 0  6825
2 23439  64.8151  41.9255 0146804 115.2566 246.3616 11.27547528335565
FO-29                   
1 24278U 96046B   03051.90822265  .00000010  00000-0  46987-4 0  5716
2 24278  98.5355 202.8092 0350246 210.3270 147.7184 13.52872823321625
TO-31                   
1 25396U 98043C   03051.92563611 -.00000043  00000-0  00000-0 0  8954
2 25396  98.6272 128.9888 0004012 121.7023 238.4551 14.23511378239869
GO-32                   
1 25397U 98043D   03051.94836632  .00000101  00000-0  63946-4 0  1592
2 25397  98.6221 127.8867 0002065 123.5244 236.6131 14.22960932239834
SO-33                   
1 25509U 98061B   03053.35803676  .00000777  00000-0  14437-3 0  7850
2 25509  31.4317 131.7713 0357752 335.8309  22.5883 14.27441331225855
PO-34                   
1 25520U 98064B   03052.78957483  .00002525  00000-0  12558-3 0  6403
2 25520  28.4621 202.4101 0005375  25.9109 334.1762 15.13904742238077
ISS         
1 25544U 98067A   03053.49680398  .00017517  00000-0  22902-3 0  7164
2 25544  51.6336 236.2719 0012197 233.3482 219.8621 15.58652381243115
UO-36                   
1 25693U 99021A   03053.34336905  .00000063  00000-0  28998-4 0  7267
2 25693  64.5606 359.2324 0020851 315.9822  43.9614 14.76393575206812
OO-38                   
1 26063U 00004C   03051.71597537  .00000188  00000-0  85267-4 0  7250
2 26063 100.2128 106.6864 0036821 281.2017  78.5023 14.35483018160699
SO-41                   
1 26545U 00057A   03051.77715620  .00001115  00000-0  16659-3 0  4160
2 26545  64.5589  25.1342 0051978 238.4525 121.1513 14.78991456129557
MO-46                   
1 26548U 00057D   03052.26885278  .00001290  00000-0  18081-3 0  4182
2 26548  64.5589  16.4823 0045119 237.8165 121.8530 14.81284228129765
SO-42                   
1 26549U 00057E   03052.01782115  .00001244  00000-0  18747-3 0  6979
2 26549  64.5519  28.5210 0056465 238.4346 121.1233 14.77929937129500
AO-40                   
1 26609U 00072B   03050.21683058 -.00000170  00000-0  10000-3 0  3125
2 26609   8.1020  63.9362 7942557 145.4197 310.7583  1.25596576 10593
NO-44                   
1 26931U 01043C   03051.97465000  .00000218  00000-0  11840-3 0  4330
2 26931  67.0472 249.4208 0005014 267.6666  92.3863 14.29117442 72697
NO-45                   
1 26932U 01043D   03051.95239549  .00000146  00000-0  89850-4 0  4074
2 26932  67.0539 249.1824 0004779 241.1937 118.8684 14.29296023 72719
AO-49                   
1 27605U 02058A   03051.82296344  .00001238  00000-0  21899-3 0   731
2 27605  64.5526 190.3918 0035898 112.8559 247.6337 14.71380672  9140
SO-50                   
1 27607U 02058C   03051.88773367  .00001340  00000-0  24296-3 0   574
2 27607  64.5506 190.6513 0037324 109.2094 251.3048 14.69913654  9144



Read previous mail | Read next mail


 22.06.2026 07:45:30lGo back Go up